Location: Doverdale
(52.2833°N, 2.2000°W)
Time: 14:50:51
(UTC+00:00)

Cosmos 1745 Rocket - Pass Details

Date: 29 October 2020
Orbit: 953 x 997 km, 83.0° (Epoch: 28 November)

Event Time Altitude Azimuth Distance (km) Brightness Sun altitude
Rises 18:05:12 0° 350° (N) 3,693 7.1 -12.8°
Reaches altitude 10° 18:07:45 10° 354° (N) 2,747 6.4 -13.2°
Maximum altitude 18:14:01 65° 76° (ENE) 1,085 4.0 -14.1°
Drops below altitude 10° 18:20:19 10° 158° (SSE) 2,754 6.2 -15.1°
Sets 18:22:52 0° 162° (SSE) 3,702 6.9 -15.5°
